User: anonymous   Login
Location: Helsinki
(60.1699°N, 24.9384°E)
Time: 22:18:02
(UTC+03:00)
Language:

SR - Orbit

View from above orbital plane
View from above orbital plane
View from above satellite
View from above satellite

Ground track
Ground track

The orbit data is extracted from the following two-line orbital elements,

1 00046U 60007B   22275.57900737  .00000863  00000-0  18871-3 0  9994
2 00046  66.6895 303.9405 0214798 228.2989 129.9570 14.49819706260434
Epoch (UTC): 02 October 2022 13:53:46
Eccentricity: 0.0214798
inclination: 66.6895°
perigee height: 573 km
apogee height: 879 km
right ascension of ascending node: 303.9405°
argument of perigee: 228.2989°
revolutions per day: 14.49819706
mean anomaly at epoch: 129.9570°
orbit number at epoch: 26043

The dashed part of the orbit path shows where the satellite is in the earth's shadow,  

DLR